SCP
0 0 0 -0 1 0 1 0 0 1 1 0 0 0 0 0 0 0 0 0 0 0 0 0 0 0 0 0 0 0 0 0 0 0 0 0 0 0 0 0 0 0 0
0 0 0 0 0 0 0 0 0 0 1 1 0 0 0 1 0 0 0 1 0 0 0 0 0 0 0 0 0 0 0 0 0 0 0 0 0 0 0 0 0 0 0
1 1 0 0 0 0 0 0 0 0 1 1 0 0 1 1 -0 -0 0 0 1 0 0 0 0 0 0 0 0 0 0 0 0 0 0 0 0 0 0 0 0 0 0
1 1 1 0 0 1 1 1 1 1 1 1 1 1 1 0 0 -0 0 0 1 1 1 0 1 0 0 0 0 0 0 0 0 0 0 0 0 0 0 0 0 0 0
1 1 1 1 1 1 1 1 1 1 1 1 1 0 0 0 0 0 0 0 -0 1 1 1 1 0 0 0 0 0 0 0 0 0 0 0 0 0 0 0 0 0 0
2 3 2 2 3 2 3 3 3 2 2 0 0 0 0 0 0 0 1 1 1 1 1 2 1 1 0 0 0 0 0 0 0 0 0 0 0 0 0 0 0 0 0
3 3 3 3 4 6 6 1 1 0 0 0 0 0 0 0 0 -0 0 0 -0 0 0 2 1 1 1 0 0 0 0 0 0 0 0 0 0 0 0 0 0 0 0
3 4 3 2 1 1 1 0 0 0 0 0 0 0 0 0 0 0 0 0 -0 0 0 0 0 0 0 0 0 0 0 0 0 0 0 0 0 0 0 0 0 0 0
2 2 2 3 2 2 1 0 0 0 0 0 0 0 0 0 0 0 0 0 -0 0 0 1 1 1 0 0 0 0 -0 0 0 0 0 0 0 0 0 0 0 0 0
0 0 1 1 2 2 1 1 1 0 0 0 0 0 0 0 0 -0 0 0 0 0 -0 0 1 0 0 0 0 -0 -0 0 0 0 0 0 0 0 0 0 0 0 0
0 0 0 0 0 0 0 1 1 1 1 0 0 0 0 0 0 -0 -0 0 0 -0 -0 1 1 0 0 -0 0 0 0 0 0 0 0 0 0 0 0 0 0 0 0
0 0 0 0 0 0 0 0 0 0 1 1 0 0 0 0 0 0 0 -0 0 0 0 0 1 1 0 0 0 0 0 0 0 0 0 0 0 0 0 0 0 0 0
0 0 0 0 0 0 0 0 0 0 0 0 0 0 0 0 0 0 -0 -0 -0 0 0 -0 -0 0 1 0 0 0 0 0 0 0 0 0 0 0 0 0 0 0 0
0 0 0 0 0 0 0 0 0 0 0 0 0 0 0 0 0 0 0 0 -0 0 -0 0 0 0 1 1 0 0 0 0 0 0 0 0 0 0 0 0 0 0 0
0 0 0 0 0 0 0 0 0 0 0 0 0 0 0 0 0 0 0 0 0 -0 -0 0 0 0 1 0 0 0 0 0 0 0 0 0 0 0 0 0 0 0 0
0 0 0 0 0 0 0 0 0 0 0 0 0 0 0 0 0 0 0 0 0 0 0 0 0 0 1 0 0 0 0 0 0 0 0 0 0 0 0 0 0 0 0
0 0 0 0 0 0 0 0 0 0 0 0 0 0 0 0 0 0 0 0 0 0 0 0 0 0 0 0 0 0 0 0 0 0 0 0 0 0 0 0 0 0 0
0 0 0 0 0 0 0 0 0 0 0 0 0 0 0 0 0 0 0 0 0 0 0 0 0 0 0 0 0 0 0 0 0 0 0 0 0 0 0 0 0 0 0
0 0 0 0 0 0 0 0 0 0 0 0 0 0 0 0 0 0 0 0 0 0 0 0 0 0 0 0 0 0 0 0 0 0 0 0 0 0 0 0 0 0 0
0 0 0 0 0 0 0 0 0 0 0 0 0 0 0 0 0 0 0 0 0 0 0 0 0 0 0 0 0 0 0 0 0 0 0 0 0 0 0 0 0 0 0
0 0 0 0 0 0 0 0 0 0 0 0 0 0 0 0 0 0 0 0 0 0 0 0 0 0 0 0 0 0 0 0 0 0 0 0 0 0 0 0 0 0 0
0 0 0 0 0 0 0 0 0 0 0 0 0 0 0 0 0 0 0 0 -0 -0 0 0 0 0 0 0 0 0 0 0 0 0 0 0 0 0 0 0 -0 0 0
0 0 0 0 0 0 0 0 0 0 0 0 0 0 0 0 0 0 0 0 0 -0 -0 0 0 0 0 0 0 0 0 0 0 0 0 0 0 0 0 0 0 0 0
0 0 0 0 0 0 0 0 0 0 0 0 0 0 0 0 0 0 0 0 0 0 0 0 0 0 0 0 0 0 0 0 0 0 0 0 0 0 0 0 -0 0 0
0 0 0 0 0 0 0 0 0 0 0 0 0 0 0 0 0 0 0 0 0 0 0 0 0 0 0 0 0 0 0 0 0 0 0 0 0 0 0 0 0 0 0
0 0 0 0 0 0 0 0 0 0 0 0 0 0 0 0 0 0 0 0 0 0 0 0 0 0 0 0 0 0 0 0 0 0 0 0 0 0 0 0 0 0 0
Wind_Speed_500mb
25 26 30 30 29 23 24 21 22 28 29 31 38 33 19 21 32 22 25 27 26 24 23 24 25 22 20 18 16 12 9 11 15 13 11 9 7 7 10 10 15 20 23
29 31 32 36 35 32 28 29 30 28 19 27 32 37 27 43 29 26 27 28 29 39 33 34 26 24 22 23 20 17 12 9 13 14 13 10 8 9 12 13 16 19 24
36 37 37 28 29 26 27 32 37 39 40 39 36 36 44 52 35 41 38 32 37 34 25 27 20 19 24 25 24 19 14 10 12 13 12 12 13 12 17 17 19 21 27
39 41 42 37 29 28 31 31 33 37 39 40 39 42 45 57 32 38 46 32 32 27 25 28 23 21 23 24 24 21 15 13 15 15 12 15 19 19 19 22 20 25 26
35 33 36 27 25 33 32 34 37 39 43 38 42 47 40 58 14 36 43 45 33 27 39 32 22 20 25 24 25 25 22 19 16 17 17 18 23 25 22 26 24 28 29
29 33 35 27 35 38 29 29 34 39 37 47 51 53 37 57 47 32 36 38 37 29 28 37 29 23 23 22 25 25 24 20 19 21 20 21 26 25 27 33 23 26 30
27 30 34 24 35 33 42 43 45 43 41 51 71 61 44 50 63 82 40 44 35 36 23 32 33 30 26 32 19 20 25 21 18 16 16 21 24 24 27 33 28 33 32
29 31 28 37 35 40 42 46 45 46 51 54 56 46 40 61 60 85 47 42 39 37 32 26 35 24 25 17 15 19 28 19 16 15 17 21 21 25 27 35 24 33 29
33 33 26 27 32 32 39 46 46 46 52 52 51 43 21 20 80 81 52 18 43 29 23 16 20 15 16 20 21 16 21 19 16 15 17 20 18 26 27 37 25 30 31
19 24 24 27 27 30 31 32 33 34 39 46 47 42 41 55 55 76 70 33 47 37 33 24 24 29 9 30 24 19 11 20 15 14 18 20 17 21 15 25 28 27 35
20 23 24 28 34 36 42 40 33 36 39 46 41 37 40 42 48 62 72 42 31 25 26 23 32 21 15 22 26 30 26 20 15 14 17 17 13 12 16 22 23 28 32
21 25 16 20 22 23 27 29 34 38 38 38 36 31 33 43 46 55 53 44 43 45 50 20 18 26 19 20 29 30 28 25 17 16 14 13 10 10 15 19 25 28 30
13 25 24 22 23 22 18 27 27 23 22 25 26 25 27 35 43 44 57 54 38 35 33 42 45 29 22 28 35 31 24 24 20 20 17 12 11 11 14 18 23 27 26
23 22 28 30 28 28 24 22 23 19 17 21 19 23 23 26 33 37 34 36 52 38 34 19 33 37 30 33 36 28 28 27 21 23 20 12 13 14 16 19 22 20 23
11 20 24 28 33 33 34 30 22 26 27 29 23 19 22 21 32 35 34 29 25 25 37 18 22 30 30 33 31 37 32 26 22 24 21 15 15 15 17 17 19 20 23
18 21 29 34 36 31 34 42 32 27 21 34 28 21 23 27 26 32 40 36 29 33 36 33 30 24 25 18 23 33 27 26 24 23 22 21 16 15 15 16 19 20 24
24 29 36 40 41 33 32 36 37 27 27 25 28 31 19 20 23 23 37 40 30 28 35 38 29 30 22 17 40 28 26 27 27 27 27 25 18 15 15 17 21 23 24
33 40 45 45 34 31 35 36 27 29 32 31 24 23 25 24 26 24 35 39 34 23 28 39 31 33 28 27 28 27 27 28 29 30 28 23 20 18 16 19 20 22 24
42 48 47 40 34 33 32 33 36 26 29 36 35 38 27 22 34 30 42 40 33 27 28 30 29 31 30 33 37 28 26 28 33 30 31 29 27 22 18 21 22 23 22
44 47 42 40 38 34 32 31 31 37 40 45 43 37 38 38 32 32 40 42 40 38 32 26 25 26 31 30 38 31 34 33 32 36 31 33 32 28 22 21 21 23 19
44 39 39 38 36 35 29 35 43 51 57 59 52 43 40 41 37 42 47 46 42 43 37 34 27 24 26 32 32 31 38 36 36 37 34 33 38 32 24 20 19 18 15
37 40 41 37 37 29 36 43 51 56 58 55 46 39 37 35 37 45 47 46 34 32 34 36 33 25 25 24 36 41 32 39 40 42 37 32 32 32 27 20 17 15 17
41 45 46 38 36 31 40 44 51 55 59 41 35 35 32 28 29 33 35 35 31 29 26 26 37 34 31 33 19 25 33 38 43 38 40 39 32 24 26 22 19 23 19
48 54 42 35 30 28 39 49 52 51 43 31 27 28 33 36 34 32 39 49 41 35 32 28 34 33 29 32 31 31 36 28 22 33 34 51 42 30 32 27 24 26 19
51 59 40 34 37 44 41 40 44 41 29 33 25 26 30 33 36 35 38 40 45 52 53 46 50 47 48 49 47 37 33 40 40 41 40 49 43 41 35 37 30 26 20
51 38 42 41 42 41 40 28 34 35 32 30 25 20 32 32 33 38 43 47 45 39 48 54 62 51 51 44 38 39 37 41 52 41 47 59 33 50 35 41 33 21 17
Wind_Direction_500mb
216 232 233 239 260 265 284 277 268 272 255 282 288 274 260 268 278 279 280 290 298 289 298 294 273 267 262 263 260 259 301 269 237 236 238 271 297 315 341 333 343 355 353
222 232 243 235 235 234 248 262 272 278 291 283 297 305 293 269 276 271 267 284 287 282 277 301 260 262 267 262 257 251 273 271 222 224 230 261 288 317 325 332 331 339 344
223 226 237 239 257 262 261 263 266 273 281 282 289 292 286 286 253 267 258 256 269 277 268 290 284 273 268 267 253 244 255 256 216 221 235 249 279 298 309 319 326 331 336
254 231 241 239 239 257 259 264 269 271 278 280 291 290 284 284 257 283 274 254 265 276 282 289 284 264 260 264 260 244 251 250 224 236 246 257 274 282 303 312 316 319 323
261 250 241 245 260 259 257 258 258 264 275 277 280 283 280 297 282 264 272 274 238 259 278 275 272 271 283 264 255 243 238 249 241 247 261 275 279 282 292 294 306 313 312
248 244 257 248 243 243 247 262 253 245 256 275 272 267 287 317 297 267 256 262 273 261 270 261 257 274 271 263 258 249 240 246 251 256 267 278 281 277 279 289 285 306 308
238 256 252 245 258 253 239 241 256 262 263 271 278 276 269 301 272 310 245 244 244 252 259 267 259 263 294 243 240 250 244 244 240 250 268 283 283 266 280 288 279 305 306
216 221 228 240 247 253 265 265 267 271 273 271 273 282 288 275 293 289 267 271 219 236 233 248 265 255 290 226 226 213 221 229 245 265 283 288 283 280 270 276 294 302 306
241 235 239 245 253 261 282 281 278 275 275 274 274 279 288 292 300 288 287 259 252 221 243 239 225 263 250 241 221 215 220 221 238 268 290 293 277 274 274 279 301 304 308
252 247 252 260 269 284 291 300 296 288 286 284 284 284 284 286 288 271 287 288 248 249 224 237 242 236 283 225 209 205 204 209 230 268 287 294 277 274 267 280 300 301 306
304 305 302 296 296 298 288 289 291 293 291 292 296 304 297 268 264 268 265 270 298 254 245 214 223 251 223 176 222 227 242 229 233 265 288 293 299 268 260 282 290 300 311
358 345 358 353 344 334 322 311 293 284 285 289 297 303 291 279 280 288 298 302 315 283 311 262 226 207 237 248 218 210 222 221 229 254 283 295 309 284 276 288 297 307 315
348 1 8 4 354 351 349 335 332 315 304 303 313 329 313 304 296 283 286 295 300 305 283 306 278 230 210 217 215 223 224 231 246 256 270 290 298 294 289 298 304 306 312
3 12 359 360 359 349 339 327 336 329 327 303 317 338 344 338 319 299 301 300 296 289 309 306 270 231 212 233 233 234 235 240 245 247 257 282 288 294 292 300 304 309 315
43 359 353 346 346 343 331 325 320 328 320 317 304 318 334 338 342 334 318 316 326 330 305 323 232 258 249 233 247 241 237 240 239 241 249 259 271 287 287 298 304 310 318
358 358 339 336 333 326 324 320 320 313 333 331 329 290 310 315 316 327 335 335 323 311 298 307 300 294 260 260 257 250 241 233 236 239 246 253 269 271 294 299 299 306 316
338 338 333 327 323 317 308 306 317 332 298 294 305 322 307 320 301 308 327 325 318 304 296 290 292 289 258 272 236 250 245 229 236 239 240 242 257 269 295 300 300 305 313
326 325 324 322 317 314 307 311 303 303 315 294 295 287 301 299 303 308 306 314 316 323 313 298 294 286 269 270 253 244 244 244 244 247 244 238 247 257 285 295 298 302 309
319 320 320 318 316 314 315 311 314 287 274 285 273 275 270 277 280 303 287 290 308 310 300 313 308 290 279 272 272 270 247 252 255 246 237 235 237 242 267 284 299 307 308
316 316 316 316 314 311 310 308 279 287 294 293 290 277 273 265 261 254 275 281 285 291 303 298 318 307 288 285 261 255 249 262 250 253 230 230 231 234 249 276 292 304 303
314 313 309 309 311 311 310 292 294 297 299 299 297 288 275 261 257 261 262 273 276 279 283 293 287 309 292 265 266 271 258 258 251 245 248 237 232 234 241 263 283 296 309
299 300 304 299 303 308 294 292 295 301 300 303 302 296 284 274 256 247 255 255 261 270 278 280 287 281 295 293 275 268 262 247 237 235 236 249 234 233 240 246 271 294 314
295 297 301 299 296 299 299 294 296 300 303 309 312 311 303 289 276 255 249 257 254 252 266 278 283 281 280 281 266 277 270 260 253 236 231 234 246 237 235 243 266 296 304
288 302 301 301 305 294 286 287 295 305 304 309 305 297 297 295 291 279 264 251 247 240 232 243 271 281 275 268 266 274 275 274 271 232 220 222 232 235 236 244 260 273 286
284 298 301 298 284 278 287 290 297 309 315 301 304 297 289 285 275 275 275 275 267 252 243 231 238 245 256 260 270 271 254 236 239 229 222 213 219 221 231 242 250 269 265
295 297 293 295 300 304 303 307 302 305 308 310 299 292 295 288 277 266 265 267 274 273 255 242 232 235 246 252 259 266 255 254 226 220 223 205 207 208 207 233 246 253 244
Wind_Speed_850mb
25 26 30 30 29 23 24 21 22 28 29 31 38 33 19 21 32 22 25 27 26 24 23 24 25 22 20 18 16 12 9 11 15 13 11 9 7 7 10 10 15 20 23
29 31 32 36 35 32 28 29 30 28 19 27 32 37 27 43 29 26 27 28 29 39 33 34 26 24 22 23 20 17 12 9 13 14 13 10 8 9 12 13 16 19 24
36 37 37 28 29 26 27 32 37 39 40 39 36 36 44 52 35 41 38 32 37 34 25 27 20 19 24 25 24 19 14 10 12 13 12 12 13 12 17 17 19 21 27
39 41 42 37 29 28 31 31 33 37 39 40 39 42 45 57 32 38 46 32 32 27 25 28 23 21 23 24 24 21 15 13 15 15 12 15 19 19 19 22 20 25 26
35 33 36 27 25 33 32 34 37 39 43 38 42 47 40 58 14 36 43 45 33 27 39 32 22 20 25 24 25 25 22 19 16 17 17 18 23 25 22 26 24 28 29
29 33 35 27 35 38 29 29 34 39 37 47 51 53 37 57 47 32 36 38 37 29 28 37 29 23 23 22 25 25 24 20 19 21 20 21 26 25 27 33 23 26 30
27 30 34 24 35 33 42 43 45 43 41 51 71 61 44 50 63 82 40 44 35 36 23 32 33 30 26 32 19 20 25 21 18 16 16 21 24 24 27 33 28 33 32
29 31 28 37 35 40 42 46 45 46 51 54 56 46 40 61 60 85 47 42 39 37 32 26 35 24 25 17 15 19 28 19 16 15 17 21 21 25 27 35 24 33 29
33 33 26 27 32 32 39 46 46 46 52 52 51 43 21 20 80 81 52 18 43 29 23 16 20 15 16 20 21 16 21 19 16 15 17 20 18 26 27 37 25 30 31
19 24 24 27 27 30 31 32 33 34 39 46 47 42 41 55 55 76 70 33 47 37 33 24 24 29 9 30 24 19 11 20 15 14 18 20 17 21 15 25 28 27 35
20 23 24 28 34 36 42 40 33 36 39 46 41 37 40 42 48 62 72 42 31 25 26 23 32 21 15 22 26 30 26 20 15 14 17 17 13 12 16 22 23 28 32
21 25 16 20 22 23 27 29 34 38 38 38 36 31 33 43 46 55 53 44 43 45 50 20 18 26 19 20 29 30 28 25 17 16 14 13 10 10 15 19 25 28 30
13 25 24 22 23 22 18 27 27 23 22 25 26 25 27 35 43 44 57 54 38 35 33 42 45 29 22 28 35 31 24 24 20 20 17 12 11 11 14 18 23 27 26
23 22 28 30 28 28 24 22 23 19 17 21 19 23 23 26 33 37 34 36 52 38 34 19 33 37 30 33 36 28 28 27 21 23 20 12 13 14 16 19 22 20 23
11 20 24 28 33 33 34 30 22 26 27 29 23 19 22 21 32 35 34 29 25 25 37 18 22 30 30 33 31 37 32 26 22 24 21 15 15 15 17 17 19 20 23
18 21 29 34 36 31 34 42 32 27 21 34 28 21 23 27 26 32 40 36 29 33 36 33 30 24 25 18 23 33 27 26 24 23 22 21 16 15 15 16 19 20 24
24 29 36 40 41 33 32 36 37 27 27 25 28 31 19 20 23 23 37 40 30 28 35 38 29 30 22 17 40 28 26 27 27 27 27 25 18 15 15 17 21 23 24
33 40 45 45 34 31 35 36 27 29 32 31 24 23 25 24 26 24 35 39 34 23 28 39 31 33 28 27 28 27 27 28 29 30 28 23 20 18 16 19 20 22 24
42 48 47 40 34 33 32 33 36 26 29 36 35 38 27 22 34 30 42 40 33 27 28 30 29 31 30 33 37 28 26 28 33 30 31 29 27 22 18 21 22 23 22
44 47 42 40 38 34 32 31 31 37 40 45 43 37 38 38 32 32 40 42 40 38 32 26 25 26 31 30 38 31 34 33 32 36 31 33 32 28 22 21 21 23 19
44 39 39 38 36 35 29 35 43 51 57 59 52 43 40 41 37 42 47 46 42 43 37 34 27 24 26 32 32 31 38 36 36 37 34 33 38 32 24 20 19 18 15
37 40 41 37 37 29 36 43 51 56 58 55 46 39 37 35 37 45 47 46 34 32 34 36 33 25 25 24 36 41 32 39 40 42 37 32 32 32 27 20 17 15 17
41 45 46 38 36 31 40 44 51 55 59 41 35 35 32 28 29 33 35 35 31 29 26 26 37 34 31 33 19 25 33 38 43 38 40 39 32 24 26 22 19 23 19
48 54 42 35 30 28 39 49 52 51 43 31 27 28 33 36 34 32 39 49 41 35 32 28 34 33 29 32 31 31 36 28 22 33 34 51 42 30 32 27 24 26 19
51 59 40 34 37 44 41 40 44 41 29 33 25 26 30 33 36 35 38 40 45 52 53 46 50 47 48 49 47 37 33 40 40 41 40 49 43 41 35 37 30 26 20
51 38 42 41 42 41 40 28 34 35 32 30 25 20 32 32 33 38 43 47 45 39 48 54 62 51 51 44 38 39 37 41 52 41 47 59 33 50 35 41 33 21 17
Wind_Direction_850mb
216 232 233 239 260 265 284 277 268 272 255 282 288 274 260 268 278 279 280 290 298 289 298 294 273 267 262 263 260 259 301 269 237 236 238 271 297 315 341 333 343 355 353
222 232 243 235 235 234 248 262 272 278 291 283 297 305 293 269 276 271 267 284 287 282 277 301 260 262 267 262 257 251 273 271 222 224 230 261 288 317 325 332 331 339 344
223 226 237 239 257 262 261 263 266 273 281 282 289 292 286 286 253 267 258 256 269 277 268 290 284 273 268 267 253 244 255 256 216 221 235 249 279 298 309 319 326 331 336
254 231 241 239 239 257 259 264 269 271 278 280 291 290 284 284 257 283 274 254 265 276 282 289 284 264 260 264 260 244 251 250 224 236 246 257 274 282 303 312 316 319 323
261 250 241 245 260 259 257 258 258 264 275 277 280 283 280 297 282 264 272 274 238 259 278 275 272 271 283 264 255 243 238 249 241 247 261 275 279 282 292 294 306 313 312
248 244 257 248 243 243 247 262 253 245 256 275 272 267 287 317 297 267 256 262 273 261 270 261 257 274 271 263 258 249 240 246 251 256 267 278 281 277 279 289 285 306 308
238 256 252 245 258 253 239 241 256 262 263 271 278 276 269 301 272 310 245 244 244 252 259 267 259 263 294 243 240 250 244 244 240 250 268 283 283 266 280 288 279 305 306
216 221 228 240 247 253 265 265 267 271 273 271 273 282 288 275 293 289 267 271 219 236 233 248 265 255 290 226 226 213 221 229 245 265 283 288 283 280 270 276 294 302 306
241 235 239 245 253 261 282 281 278 275 275 274 274 279 288 292 300 288 287 259 252 221 243 239 225 263 250 241 221 215 220 221 238 268 290 293 277 274 274 279 301 304 308
252 247 252 260 269 284 291 300 296 288 286 284 284 284 284 286 288 271 287 288 248 249 224 237 242 236 283 225 209 205 204 209 230 268 287 294 277 274 267 280 300 301 306
304 305 302 296 296 298 288 289 291 293 291 292 296 304 297 268 264 268 265 270 298 254 245 214 223 251 223 176 222 227 242 229 233 265 288 293 299 268 260 282 290 300 311
358 345 358 353 344 334 322 311 293 284 285 289 297 303 291 279 280 288 298 302 315 283 311 262 226 207 237 248 218 210 222 221 229 254 283 295 309 284 276 288 297 307 315
348 1 8 4 354 351 349 335 332 315 304 303 313 329 313 304 296 283 286 295 300 305 283 306 278 230 210 217 215 223 224 231 246 256 270 290 298 294 289 298 304 306 312
3 12 359 360 359 349 339 327 336 329 327 303 317 338 344 338 319 299 301 300 296 289 309 306 270 231 212 233 233 234 235 240 245 247 257 282 288 294 292 300 304 309 315
43 359 353 346 346 343 331 325 320 328 320 317 304 318 334 338 342 334 318 316 326 330 305 323 232 258 249 233 247 241 237 240 239 241 249 259 271 287 287 298 304 310 318
358 358 339 336 333 326 324 320 320 313 333 331 329 290 310 315 316 327 335 335 323 311 298 307 300 294 260 260 257 250 241 233 236 239 246 253 269 271 294 299 299 306 316
338 338 333 327 323 317 308 306 317 332 298 294 305 322 307 320 301 308 327 325 318 304 296 290 292 289 258 272 236 250 245 229 236 239 240 242 257 269 295 300 300 305 313
326 325 324 322 317 314 307 311 303 303 315 294 295 287 301 299 303 308 306 314 316 323 313 298 294 286 269 270 253 244 244 244 244 247 244 238 247 257 285 295 298 302 309
319 320 320 318 316 314 315 311 314 287 274 285 273 275 270 277 280 303 287 290 308 310 300 313 308 290 279 272 272 270 247 252 255 246 237 235 237 242 267 284 299 307 308
316 316 316 316 314 311 310 308 279 287 294 293 290 277 273 265 261 254 275 281 285 291 303 298 318 307 288 285 261 255 249 262 250 253 230 230 231 234 249 276 292 304 303
314 313 309 309 311 311 310 292 294 297 299 299 297 288 275 261 257 261 262 273 276 279 283 293 287 309 292 265 266 271 258 258 251 245 248 237 232 234 241 263 283 296 309
299 300 304 299 303 308 294 292 295 301 300 303 302 296 284 274 256 247 255 255 261 270 278 280 287 281 295 293 275 268 262 247 237 235 236 249 234 233 240 246 271 294 314
295 297 301 299 296 299 299 294 296 300 303 309 312 311 303 289 276 255 249 257 254 252 266 278 283 281 280 281 266 277 270 260 253 236 231 234 246 237 235 243 266 296 304
288 302 301 301 305 294 286 287 295 305 304 309 305 297 297 295 291 279 264 251 247 240 232 243 271 281 275 268 266 274 275 274 271 232 220 222 232 235 236 244 260 273 286
284 298 301 298 284 278 287 290 297 309 315 301 304 297 289 285 275 275 275 275 267 252 243 231 238 245 256 260 270 271 254 236 239 229 222 213 219 221 231 242 250 269 265
295 297 293 295 300 304 303 307 302 305 308 310 299 292 295 288 277 266 265 267 274 273 255 242 232 235 246 252 259 266 255 254 226 220 223 205 207 208 207 233 246 253 244